EST,Max TemperatureF,Mean TemperatureF,Min TemperatureF,Max Dew PointF,MeanDew PointF,Min DewpointF,Max Humidity, Mean Humidity, Min Humidity, Max Sea Level PressureIn, Mean Sea Level PressureIn, Min Sea Level PressureIn, Max VisibilityMiles, Mean VisibilityMiles, Min VisibilityMiles, Max Wind SpeedMPH, Mean Wind SpeedMPH, Max Gust SpeedMPH,PrecipitationIn, CloudCover, Events, WindDirDegrees
2013-2-1,26,22,17,12,6,2,65,51,36,30.12,29.88,29.64,10,10,10,28,10,40,T,6,,276
2013-2-2,27,18,8,14,7,1,73,55,37,30.21,30.08,30.00,10,8,2,15,5,21,T,6,Snow,227
2013-2-3,29,20,11,13,10,7,92,67,42,30.02,29.87,29.75,10,10,9,9,2,12,0.00,5,,197
2013-2-4,23,19,14,16,9,2,77,59,41,29.94,29.82,29.72,10,9,2,21,8,31,T,7,Snow,257
2013-2-5,27,19,10,15,9,5,88,65,42,30.01,29.93,29.86,10,10,8,7,1,10,0.00,4,,211
2013-2-6,33,25,16,21,13,1,81,58,34,30.35,30.03,29.84,10,8,2,20,6,26,T,5,Snow,258
2013-2-7,27,18,9,5,2,-2,73,54,35,30.53,30.43,30.35,10,10,10,16,3,22,0.00,5,,289
2013-2-8,30,26,21,19,16,5,84,61,37,30.35,29.97,29.76,10,5,0,26,14,45,0.11,8,Fog-Snow,88
2013-2-9,21,16,11,18,4,-9,84,59,33,30.34,30.01,29.79,10,6,0,25,12,35,0.15,4,Fog-Snow,328
2013-2-10,29,11,-7,3,-3,-11,82,56,29,30.50,30.40,30.28,10,10,10,13,0,16,0.00,0,,280
2013-2-11,46,29,12,38,28,-1,92,57,22,30.24,29.83,29.63,10,9,2,21,6,31,0.12,7,Rain-Snow,205
2013-2-12,36,34,31,28,25,22,75,68,61,29.91,29.77,29.67,10,10,10,18,9,29,0.00,8,,261
2013-2-13,37,31,25,23,21,17,75,61,47,29.88,29.81,29.72,10,10,10,21,4,43,0.00,6,,251
2013-2-14,38,27,16,21,19,14,92,70,47,29.96,29.89,29.73,10,10,10,9,2,13,0.00,2,,133
2013-2-15,46,36,26,28,24,19,75,59,43,29.99,29.92,29.88,10,8,2,13,4,21,T,7,Snow,261
2013-2-16,32,27,22,27,19,3,92,67,42,29.99,29.93,29.82,10,7,1,13,6,20,0.03,6,Snow,302
2013-2-17,24,18,11,3,0,-4,59,46,33,29.89,29.73,29.62,10,10,10,23,12,36,0.00,3,,318
2013-2-18,25,15,5,5,-2,-6,70,50,30,30.18,30.11,29.92,10,10,10,13,7,20,0.00,0,,272
2013-2-19,45,29,12,34,23,4,85,61,37,30.16,29.79,29.59,10,8,1,24,5,36,0.32,6,Rain-Snow,210
2013-2-20,32,28,23,28,17,9,92,69,46,29.86,29.71,29.61,10,8,1,21,10,31,0.01,8,Snow,275
2013-2-21,23,21,18,14,9,5,68,60,52,30.38,30.02,29.81,10,9,4,17,9,25,T,8,Snow,273
2013-2-22,37,27,16,23,17,11,84,68,52,30.41,30.32,30.24,10,10,10,12,3,16,0.00,4,,202
2013-2-23,37,35,32,29,26,20,75,66,56,30.23,30.04,29.86,10,10,9,18,9,26,T,8,,120
2013-2-24,36,33,30,33,30,26,92,81,70,29.95,29.81,29.74,10,4,1,13,4,17,0.13,8,Snow,270
2013-2-25,38,33,27,27,25,23,85,72,59,30.24,30.11,29.96,10,10,8,6,2,8,0.00,7,,245
2013-2-26,42,32,21,26,24,19,92,73,54,30.30,30.22,30.04,10,10,8,25,6,40,0.00,5,,123
2013-2-27,42,37,32,34,29,23,82,69,56,30.03,29.74,29.55,10,6,0,33,14,49,0.31,8,Fog-Rain-Snow,120
2013-2-28,42,38,33,34,32,28,96,79,62,29.60,29.57,29.53,10,9,5,8,2,9,0.03,8,Rain-Snow,275